Miscellaneous Local Product
Issued by NWS Hastings, NE

Home | Current Version | Previous Version | Text Only | Print | Product List | Glossary On
Versions: 1 2 3 4 5 6 7 8 9 10 11 12 13 14 15 16 17 18 19 20 21 22 23 24 25 26 27 28 29 30 31 32 33 34 35 36 37 38 39 40 41 42 43 44 45 46 47 48 49 50
000
AXUS43 KGID 280402
MISGRI

GID CWA HOURLY WEATHER ROUNDUP
NATIONAL WEATHER SERVICE HASTINGS NE
1000 PM CST MON FEB 27 2017

NOTE: "FAIR" INDICATES FEW OR NO CLOUDS BELOW 12,000 FEET WITH NO
SIGNIFICANT WEATHER AND/OR OBSTRUCTIONS TO VISIBILITY.

...SOUTH CENTRAL NEBRASKA...

CITY           SKY/WX    TMP DP  RH WIND       PRES   REMARKS
GRAND ISLAND   CLOUDY    42  39  89 SE8       29.66S
HASTINGS       CLOUDY    47  38  71 SE13      29.64F
KEARNEY        CLOUDY    41  34  75 E6        29.62F
ORD            CLOUDY    39  34  82 CALM      29.62F
YORK           CLOUDY    45  37  76 SE8       29.68S
AURORA         CLOUDY    38  35  90 E7        29.66F WCI  32
LEXINGTON      CLOUDY    41  25  53 SE9       29.59F
HOLDREGE       CLOUDY    39  33  78 SE9       29.60S WCI  33
HEBRON         CLOUDY    44  38  79 SE3       29.67F

...NEBRASKA PANHANDLE...

CITY           SKY/WX    TMP DP  RH WIND       PRES   REMARKS
CHADRON        CLOUDY    31  29  92 S5        29.67S WCI  26
ALLIANCE       CLOUDY    28  23  81 CALM      29.65R
SCOTTSBLUFF    CLOUDY    26  23  88 NW5       29.69R WCI  20
SIDNEY         CLOUDY    30  24  78 NW14      29.64R WCI  19

...WESTERN AND NORTH CENTRAL NEBRASKA...

CITY           SKY/WX    TMP DP  RH WIND       PRES   REMARKS
VALENTINE      MOCLDY    36  28  73 N9        29.66R WCI  29
AINSWORTH      PTCLDY    32  31  93 CALM      29.64R
ONEILL         CLEAR     36  32  87 SE6       29.64S WCI  31
BROKEN BOW     CLOUDY    33  28  81 CALM      29.60R
IMPERIAL       CLOUDY    43  17  35 S12       29.52F
NORTH PLATTE   CLOUDY    31  23  72 SE9       29.55F WCI  23
MCCOOK         CLOUDY    47  17  30 S15       29.56S

...EASTERN NEBRASKA...

CITY           SKY/WX    TMP DP  RH WIND       PRES   REMARKS
NORFOLK        CLEAR     38  31  76 SE8       29.67F WCI  32
SO SIOUX CITY  CLEAR     40  30  67 E9        29.73F WCI  34
TEKAMAH        CLEAR     38  29  70 S5        29.74S WCI  34
COLUMBUS       CLOUDY    36  30  80 E8        29.70S WCI  29
ALBION         CLEAR     39  34  83 SE9       29.65F WCI  33
OMAHA EPPLEY   CLOUDY    44  30  57 SE3       29.73S
OFFUTT AFB     CLOUDY    43  32  64 S3        29.72F
MILLARD        CLOUDY    42  34  71 CALM      29.73S
LINCOLN        CLOUDY    37  32  82 CALM      29.72F
NEBRASKA CITY  CLOUDY    44  31  61 S7        29.73S
BEATRICE       CLOUDY    47  40  79 E6        29.70F
FALLS CITY     CLOUDY    47  37  68 SE6       29.73F

...NORTHERN KANSAS...

CITY           SKY/WX    TMP DP  RH WIND       PRES   REMARKS
GOODLAND       CLOUDY    50  16  25 SW22G32   29.59R
HILL CITY      CLOUDY    43  25  49 S6        29.62R
NORTON         CLEAR     45  12  26 SE7       29.59
PHILLIPSBURG   CLEAR     39  27  60 E6        29.61S WCI  35
SMITH CENTER   CLEAR     41  37  87 E10       29.63R
HAYS             N/A     42  38  85 SE8       29.61F
RUSSELL        CLEAR     47  41  80 S10       29.60F
CONCORDIA      CLOUDY    48  42  80 E8        29.65F
SALINA         CLEAR     54  44  69 S13       29.65F
TOPEKA         PTCLDY    59  54  83 S13G22    29.72F



USA.gov is the U.S. government's official web portal to all federal, state and local government web resources and services.